EW7429 Weather Reports


Display with metric or nautical units.
time (UTC)temp
F
wind
direction
speed
MPH
gust
MPH
rain 1hr
in
rain 24hr
in
rain mn
in
humidity
%
barometer
mb
20190218163204 37 190 4.0 9.0 0.00 0.00 0.00 30 1044.0
20190218162704 36 144 4.0 9.0 0.00 0.00 0.00 32 1044.0
20190218162204 36 115 2.0 6.0 0.00 0.00 0.00 32 1044.1
20190218161704 35 87 2.0 6.0 0.00 0.00 0.00 34 1044.1
20190218161204 35 80 2.0 6.0 0.00 0.00 0.00 36 1044.1
20190218160704 34 130 2.0 6.0 0.00 0.00 0.00 36 1044.2
20190218160205 33 196 2.0 5.0 0.00 0.00 0.00 39 1044.1
20190218155704 32 220 1.0 5.0 0.00 0.00 0.00 39 1044.1
20190218155204 31 94 1.0 5.0 0.00 0.00 0.00 41 1044.1
20190218154709 30 38 1.0 3.0 0.00 0.00 0.00 46 1044.2
20190218154204 29 325 1.0 3.0 0.00 0.00 0.00 52 1044.1
20190218153705 28 325 1.0 3.0 0.00 0.00 0.00 55 1044.1
20190218153204 26 333 1.0 3.0 0.00 0.00 0.00 57 1044.1
20190218152704 25 333 0.0 3.0 0.00 0.00 0.00 58 1044.0
20190218152205 24 335 1.0 3.0 0.00 0.00 0.00 60 1044.1
20190218151705 22 335 2.0 3.0 0.00 0.00 0.00 63 1044.1
20190218151204 21 343 1.0 3.0 0.00 0.00 0.00 67 1044.1
20190218150705 20 344 1.0 3.0 0.00 0.00 0.00 70 1044.1
20190218150204 19 350 0.0 2.0 0.00 0.00 0.00 72 1044.1
20190218145704 17 357 1.0 3.0 0.00 0.00 0.00 74 1044.1
20190218145204 16 12 1.0 3.0 0.00 0.00 0.00 75 1044.2
20190218144704 15 14 1.0 3.0 0.00 0.00 0.00 75 1044.1
20190218144204 15 14 1.0 3.0 0.00 0.00 0.00 76 1044.1
20190218143704 14 14 0.0 1.0 0.00 0.00 0.00 76 1044.0
20190218143204 14 16 0.0 1.0 0.00 0.00 0.00 75 1043.9
20190218142704 14 16 0.0 1.0 0.00 0.00 0.00 75 1043.9
20190218142204 13 16 0.0 2.0 0.00 0.00 0.00 74 1043.9
20190218141704 13 16 0.0 2.0 0.00 0.00 0.00 74 1043.8
20190218141204 13 17 0.0 2.0 0.00 0.00 0.00 74 1043.8
20190218140704 13 18 0.0 2.0 0.00 0.00 0.00 73 1043.7
20190218140204 13 18 0.0 2.0 0.00 0.00 0.00 73 1043.7
20190218135704 13 19 0.0 1.0 0.00 0.00 0.00 73 1043.7
20190218135204 13 19 0.0 1.0 0.00 0.00 0.00 73 1043.6
20190218134704 13 19 0.0 1.0 0.00 0.00 0.00 73 1043.6
20190218134204 13 19 0.0 3.0 0.00 0.00 0.00 73 1043.6
20190218133704 13 19 0.0 3.0 0.00 0.00 0.00 73 1043.6
20190218133204 13 19 0.0 3.0 0.00 0.00 0.00 73 1043.5
20190218132704 14 19 0.0 2.0 0.00 0.00 0.00 72 1043.4
20190218132204 14 21 0.0 2.0 0.00 0.00 0.00 72 1043.3
20190218131704 14 21 0.0 3.0 0.00 0.00 0.00 72 1043.3
20190218131204 14 21 0.0 3.0 0.00 0.00 0.00 72 1043.2
20190218130704 15 21 1.0 3.0 0.00 0.00 0.00 72 1043.1
20190218130205 15 21 1.0 2.0 0.00 0.00 0.00 73 1043.1
20190218125704 15 21 0.0 2.0 0.00 0.00 0.00 71 1043.1
20190218125204 15 21 0.0 1.0 0.00 0.00 0.00 71 1043.0
20190218124704 15 21 0.0 2.0 0.00 0.00 0.00 71 1042.9
20190218124204 16 21 0.0 2.0 0.00 0.00 0.00 71 1042.9
20190218123705 16 21 0.0 2.0 0.00 0.00 0.00 69 1042.9
20190218123205 16 21 0.0 2.0 0.00 0.00 0.00 68 1042.8
20190218122704 16 21 0.0 2.0 0.00 0.00 0.00 67 1042.9
20190218122205 16 21 0.0 3.0 0.00 0.00 0.00 68 1042.8
20190218121704 17 21 0.0 3.0 0.00 0.00 0.00 67 1042.7
20190218121205 17 21 0.0 3.0 0.00 0.00 0.00 67 1042.7
20190218120705 17 22 0.0 2.0 0.00 0.00 0.00 68 1042.7
20190218120205 17 22 1.0 3.0 0.00 0.00 0.00 66 1042.6
20190218115705 18 21 1.0 3.0 0.00 0.00 0.00 65 1042.6
20190218115205 18 22 0.0 3.0 0.00 0.00 0.00 65 1042.6
20190218114706 19 22 1.0 3.0 0.00 0.00 0.00 63 1042.6
20190218114205 19 27 1.0 3.0 0.00 0.00 0.00 63 1042.6
20190218113704 19 28 1.0 3.0 0.00 0.00 0.00 63 1042.5
20190218113205 20 27 1.0 3.0 0.00 0.00 0.00 64 1042.6
20190218112704 20 28 1.0 3.0 0.00 0.00 0.00 64 1042.5
20190218112204 20 28 1.0 4.0 0.00 0.00 0.00 63 1042.5
20190218111704 20 29 1.0 4.0 0.00 0.00 0.00 62 1042.5
20190218111205 21 29 1.0 4.0 0.00 0.00 0.00 62 1042.5
20190218110704 21 28 1.0 3.0 0.00 0.00 0.00 62 1042.5
20190218110204 21 27 1.0 3.0 0.00 0.00 0.00 61 1042.5
20190218105704 21 27 2.0 6.0 0.00 0.00 0.00 60 1042.5
20190218105204 22 27 1.0 6.0 0.00 0.00 0.00 61 1042.5
20190218104705 22 28 1.0 6.0 0.00 0.00 0.00 60 1042.6
20190218104204 21 259 0.0 3.0 0.00 0.00 0.00 61 1042.5
20190218103704 22 258 1.0 3.0 0.00 0.00 0.00 61 1042.6
20190218103204 22 283 1.0 4.0 0.00 0.00 0.00 60 1042.5
20190218102704 22 283 1.0 5.0 0.00 0.00 0.00 59 1042.6
20190218102204 22 283 1.0 5.0 0.00 0.00 0.00 59 1042.5
20190218101704 22 283 2.0 6.0 0.00 0.00 0.00 59 1042.5
20190218101204 22 336 2.0 6.0 0.00 0.00 0.00 60 1042.6
20190218100704 22 325 2.0 4.0 0.00 0.00 0.00 61 1042.5
20190218100205 22 58 1.0 4.0 0.00 0.00 0.00 61 1042.5
20190218095704 22 46 0.0 3.0 0.00 0.00 0.00 61 1042.5
20190218095204 22 43 1.0 3.0 0.00 0.00 0.00 61 1042.5
20190218094704 22 44 1.0 3.0 0.00 0.00 0.00 61 1042.5
20190218094204 22 48 1.0 4.0 0.00 0.00 0.00 61 1042.6
20190218093705 22 43 1.0 4.0 0.00 0.00 0.00 61 1042.6
20190218093204 22 32 1.0 4.0 0.00 0.00 0.00 62 1042.6
20190218092704 22 34 1.0 4.0 0.00 0.00 0.00 62 1042.6
20190218092204 22 39 1.0 4.0 0.00 0.00 0.00 63 1042.7
20190218091705 22 39 1.0 3.0 0.00 0.00 0.00 61 1042.7
20190218091204 22 17 1.0 3.0 0.00 0.00 0.00 62 1042.8
20190218090704 22 17 1.0 3.0 0.00 0.00 0.00 62 1042.7
20190218090204 22 19 1.0 2.0 0.00 0.00 0.00 62 1042.8
20190218085704 22 17 0.0 2.0 0.00 0.00 0.00 63 1042.9
20190218085204 22 17 1.0 3.0 0.00 0.00 0.00 62 1042.8
20190218084704 22 16 1.0 3.0 0.00 0.00 0.00 62 1042.8
20190218084204 21 16 1.0 3.0 0.00 0.00 0.00 64 1042.7
20190218083704 21 17 1.0 3.0 0.00 0.00 0.00 64 1042.8
20190218083204 20 17 1.0 2.0 0.00 0.00 0.00 65 1042.9
20190218082704 20 18 0.0 3.0 0.00 0.00 0.00 67 1042.8
20190218082204 20 18 1.0 8.0 0.00 0.00 0.00 66 1042.8
20190218081704 19 18 1.0 8.0 0.00 0.00 0.00 68 1042.8
20190218081204 19 19 1.0 8.0 0.00 0.00 0.00 67 1042.9
20190218080709 19 3 0.0 2.0 0.00 0.00 0.00 67 1043.0
20190218080204 19 3 0.0 3.0 0.00 0.00 0.00 67 1042.9
20190218075704 18 3 1.0 3.0 0.00 0.00 0.00 66 1042.9
20190218075205 18 3 0.0 1.0 0.00 0.00 0.00 66 1043.0
20190218074704 18 4 0.0 3.0 0.00 0.00 0.00 65 1042.9
20190218074205 18 4 0.0 3.0 0.00 0.00 0.00 65 1042.8
20190218073705 18 4 0.0 2.0 0.00 0.00 0.00 66 1042.9
20190218073204 18 6 0.0 2.0 0.00 0.00 0.00 65 1042.9
20190218072704 18 5 0.0 2.0 0.00 0.00 0.00 64 1042.9
20190218072204 18 5 0.0 2.0 0.00 0.00 0.00 64 1042.8
20190218071704 18 4 0.0 2.0 0.00 0.00 0.00 64 1042.8
20190218071204 18 5 0.0 3.0 0.00 0.00 0.00 63 1042.9
20190218070704 18 4 0.0 3.0 0.00 0.00 0.00 64 1042.9
20190218070204 18 5 1.0 3.0 0.00 0.00 0.00 64 1042.9
20190218065704 18 4 0.0 0.0 0.00 0.00 0.00 62 1042.9
20190218065204 18 12 0.0 0.0 0.00 0.00 0.00 62 1042.9
20190218064703 18 12 0.0 2.0 0.00 0.00 0.00 62 1042.9
20190218064204 18 12 0.0 2.0 0.00 0.00 0.00 63 1042.9
20190218063705 18 12 0.0 2.0 0.00 0.00 0.00 62 1042.8
20190218063204 18 12 0.0 2.0 0.00 0.00 0.00 62 1042.8
20190218062704 18 11 0.0 1.0 0.00 0.00 0.00 62 1042.8
20190218062204 19 11 0.0 0.0 0.00 0.00 0.00 61 1042.7
20190218061703 19 11 0.0 2.0 0.00 0.00 0.00 62 1042.7
20190218061204 19 11 0.0 2.0 0.00 0.00 0.00 60 1042.7
20190218060705 19 11 0.0 2.0 0.00 0.00 0.00 60 1042.6
20190218060206 19 11 0.0 1.0 0.00 0.00 0.00 61 1042.6
20190218055709 19 11 0.0 2.0 0.00 0.00 0.00 60 1042.6
20190218055209 19 11 0.0 2.0 0.00 0.00 0.00 59 1042.5
20190218054703 19 11 0.0 2.0 0.00 0.00 0.00 59 1042.5
20190218054205 19 11 0.0 2.0 0.00 0.00 0.00 58 1042.5
20190218053705 20 12 0.0 2.0 0.00 0.00 0.00 57 1042.4
20190218053205 20 12 0.0 2.0 0.00 0.00 0.00 57 1042.3
20190218052704 20 11 0.0 0.0 0.00 0.00 0.00 58 1042.3
20190218052205 20 11 0.0 1.0 0.00 0.00 0.00 57 1042.4
20190218051704 20 11 0.0 1.0 0.00 0.00 0.00 55 1042.3
20190218051205 20 11 0.0 0.0 0.00 0.00 0.00 56 1042.2
20190218050704 20 11 0.0 2.0 0.00 0.00 0.00 56 1042.2
20190218050204 21 11 0.0 3.0 0.00 0.00 0.00 56 1042.1
20190218045704 21 11 1.0 3.0 0.00 0.00 0.00 55 1042.1
20190218045204 21 12 1.0 3.0 0.00 0.00 0.00 53 1042.1
20190218044705 21 12 0.0 0.0 0.00 0.00 0.00 52 1042.0
20190218044204 21 13 0.0 2.0 0.00 0.00 0.00 52 1042.0
20190218043705 21 13 0.0 2.0 0.00 0.00 0.00 53 1042.0
20190218043209 22 13 0.0 2.0 0.00 0.00 0.00 51 1042.0
20190218042704 22 13 1.0 2.0 0.00 0.00 0.00 52 1041.9
20190218042205 22 13 0.0 3.0 0.00 0.00 0.00 50 1041.9
20190218041703 22 13 1.0 3.0 0.00 0.00 0.00 52 1041.8
20190218041204 22 13 1.0 3.0 0.00 0.00 0.00 52 1041.8
20190218040704 22 13 1.0 1.0 0.00 0.00 0.00 51 1041.7
20190218040205 23 13 0.0 2.0 0.00 0.00 0.00 49 1041.7
20190218035704 23 13 0.0 2.0 0.00 0.00 0.00 50 1041.7
20190218035204 23 12 0.0 2.0 0.00 0.00 0.00 49 1041.7
20190218034704 23 13 0.0 2.0 0.00 0.00 0.00 48 1041.8
20190218034204 23 13 0.0 0.0 0.00 0.00 0.00 49 1041.8
20190218033704 23 13 0.0 1.0 0.00 0.00 0.00 49 1041.8
20190218033204 24 13 0.0 1.0 0.00 0.00 0.00 48 1041.7
20190218032704 24 13 0.0 3.0 0.00 0.00 0.00 48 1041.7
20190218032204 24 13 0.0 3.0 0.00 0.00 0.00 46 1041.7
20190218031704 24 13 0.0 3.0 0.00 0.00 0.00 47 1041.7
20190218031204 24 14 0.0 2.0 0.00 0.00 0.00 47 1041.8
20190218030704 24 14 0.0 2.0 0.00 0.00 0.00 46 1041.7
20190218030204 25 14 0.0 2.0 0.00 0.00 0.00 44 1041.7
20190218025704 25 14 0.0 0.0 0.00 0.00 0.00 43 1041.6
20190218025204 26 13 0.0 0.0 0.00 0.00 0.00 41 1041.6
20190218024704 26 13 0.0 0.0 0.00 0.00 0.00 41 1041.6
20190218024204 27 13 0.0 0.0 0.00 0.00 0.00 39 1041.7
20190218023705 27 13 0.0 4.0 0.00 0.00 0.00 38 1041.7
20190218023204 28 13 0.0 4.0 0.00 0.00 0.00 37 1041.7
20190218022704 28 13 0.0 4.0 0.00 0.00 0.00 36 1041.6
20190218022205 29 64 0.0 9.0 0.00 0.00 0.00 35 1041.6
20190218021704 29 310 1.0 10.0 0.00 0.00 0.00 34 1041.6
20190218021204 30 308 2.0 10.0 0.00 0.00 0.00 33 1041.5
20190218020704 30 294 2.0 10.0 0.00 0.00 0.00 33 1041.5
20190218020205 30 281 2.0 8.0 0.00 0.00 0.00 33 1041.5
20190218015704 31 324 2.0 9.0 0.00 0.00 0.00 33 1041.5
20190218015204 31 316 3.0 13.0 0.00 0.00 0.00 32 1041.4
20190218014704 31 27 4.0 13.0 0.00 0.00 0.00 31 1041.3
20190218014204 31 294 4.0 13.0 0.00 0.00 0.00 30 1041.3
20190218013704 32 298 5.0 12.0 0.00 0.00 0.00 30 1041.1
20190218013204 32 346 5.0 12.0 0.00 0.00 0.00 29 1040.9
20190218012705 32 286 4.0 12.0 0.00 0.00 0.00 29 1041.0
20190218012204 32 315 3.0 14.0 0.00 0.00 0.00 29 1040.8
20190218011705 32 6 3.0 14.0 0.00 0.00 0.00 28 1040.7
20190218011204 32 300 4.0 14.0 0.00 0.00 0.00 28 1040.6
20190218010704 33 292 4.0 15.0 0.00 0.00 0.00 27 1040.6
20190218010204 33 351 4.0 15.0 0.00 0.00 0.00 27 1040.5
20190218005705 33 346 5.0 15.0 0.00 0.00 0.00 27 1040.5
20190218005204 33 331 5.0 16.0 0.00 0.00 0.00 26 1040.4
20190218004704 33 344 6.0 16.0 0.00 0.00 0.00 26 1040.4
20190218004204 34 302 6.0 19.0 0.00 0.00 0.00 25 1040.4
20190218003705 34 292 6.0 19.0 0.00 0.00 0.00 25 1040.3
20190218003204 34 198 7.0 19.0 0.00 0.00 0.00 25 1040.3
20190218002705 34 325 6.0 18.0 0.00 0.00 0.00 25 1040.3
20190218002205 35 210 6.0 18.0 0.00 0.00 0.00 25 1040.2
20190218001705 35 334 5.0 18.0 0.00 0.00 0.00 25 1040.1
20190218001204 35 209 7.0 21.0 0.00 0.00 0.00 25 1040.2
20190218000705 35 270 7.0 21.0 0.00 0.00 0.00 24 1040.1
20190218000204 36 11 7.0 21.0 0.00 0.00 0.00 24 1040.0
20190217235705 36 34 7.0 18.0 0.00 0.00 0.00 24 1040.1
20190217235205 36 323 7.0 15.0 0.00 0.00 0.00 24 1039.9
20190217234704 36 257 6.0 17.0 0.00 0.00 0.00 24 1039.9
20190217234204 36 294 7.0 17.0 0.00 0.00 0.00 24 1039.9
20190217233705 37 265 8.0 17.0 0.00 0.00 0.00 24 1039.9
20190217233204 37 287 7.0 21.0 0.00 0.00 0.00 24 1039.8
20190217232704 38 311 9.0 21.0 0.00 0.00 0.00 23 1039.9
20190217232205 38 345 10.0 33.0 0.00 0.00 0.00 23 1039.7
20190217231704 38 275 9.0 33.0 0.00 0.00 0.00 23 1039.6
20190217231205 38 275 11.0 33.0 0.00 0.00 0.00 23 1039.9
20190217230704 38 347 11.0 24.0 0.00 0.00 0.00 21 1039.6
20190217230204 39 215 10.0 24.0 0.00 0.00 0.00 21 1039.7
20190217225704 38 252 11.0 26.0 0.00 0.00 0.00 23 1039.6
20190217225204 40 298 9.0 26.0 0.00 0.00 0.00 22 1039.7
20190217224704 40 8 9.0 26.0 0.00 0.00 0.00 22 1039.5
20190217224204 40 325 9.0 22.0 0.00 0.00 0.00 22 1039.5
20190217223704 40 292 9.0 22.0 0.00 0.00 0.00 24 1039.5
20190217223204 40 340 10.0 20.0 0.00 0.00 0.00 23 1039.6
20190217222704 40 275 8.0 20.0 0.00 0.00 0.00 22 1039.6
20190217222205 41 265 8.0 15.0 0.00 0.00 0.00 22 1039.7
20190217221704 41 304 7.0 23.0 0.00 0.00 0.00 22 1039.6
20190217221204 41 352 7.0 26.0 0.00 0.00 0.00 23 1039.5
20190217220704 40 259 9.0 26.0 0.00 0.00 0.00 23 1039.4
20190217220204 40 284 8.0 26.0 0.00 0.00 0.00 21 1039.6
20190217215704 41 312 7.0 21.0 0.00 0.00 0.00 24 1039.6
20190217215205 41 31 8.0 21.0 0.00 0.00 0.00 25 1039.3
20190217214705 40 354 9.0 21.0 0.00 0.00 0.00 24 1039.4
20190217214205 41 312 8.0 18.0 0.00 0.00 0.00 23 1039.6
20190217213704 41 334 8.0 17.0 0.00 0.00 0.00 25 1039.3
20190217213204 41 260 8.0 17.0 0.00 0.00 0.00 25 1039.3
20190217212704 41 290 8.0 17.0 0.00 0.00 0.00 25 1039.5
20190217212209 41 275 8.0 18.0 0.00 0.00 0.00 25 1039.4
20190217211704 41 212 7.0 18.0 0.00 0.00 0.00 24 1039.4
20190217211204 42 256 7.0 19.0 0.00 0.00 0.00 24 1039.5
20190217210704 41 319 7.0 19.0 0.00 0.00 0.00 23 1039.4
20190217210205 41 279 7.0 19.0 0.00 0.00 0.00 23 1039.6
20190217205704 42 333 7.0 16.0 0.00 0.00 0.00 24 1039.7
20190217205204 42 270 7.0 17.0 0.00 0.00 0.00 24 1039.7
20190217204705 41 286 6.0 20.0 0.00 0.00 0.00 23 1039.8
20190217204204 41 326 6.0 20.0 0.00 0.00 0.00 23 1039.6
20190217203704 41 254 6.0 20.0 0.00 0.00 0.00 22 1039.8
20190217203204 41 335 6.0 14.0 0.00 0.00 0.00 23 1039.7
20190217202704 40 355 7.0 24.0 0.00 0.00 0.00 23 1039.7
20190217202204 40 292 9.0 24.0 0.00 0.00 0.00 23 1039.7
20190217201704 41 260 9.0 24.0 0.00 0.00 0.00 21 1039.9
20190217201204 41 335 9.0 17.0 0.00 0.00 0.00 24 1039.9
20190217200704 41 298 9.0 17.0 0.00 0.00 0.00 22 1039.8
20190217200204 42 293 8.0 18.0 0.00 0.00 0.00 21 1039.9
20190217195705 41 352 8.0 18.0 0.00 0.00 0.00 21 1040.0
20190217195204 42 1 8.0 18.0 0.00 0.00 0.00 20 1040.1
20190217194704 42 35 7.0 17.0 0.00 0.00 0.00 20 1040.3
20190217194204 42 23 8.0 18.0 0.00 0.00 0.00 20 1040.3
20190217193704 42 325 7.0 18.0 0.00 0.00 0.00 20 1040.3
20190217193205 42 303 7.0 18.0 0.00 0.00 0.00 21 1040.3
20190217192704 42 275 7.0 17.0 0.00 0.00 0.00 21 1040.3
20190217192204 41 325 8.0 17.0 0.00 0.00 0.00 21 1040.2
20190217191704 41 297 7.0 15.0 0.00 0.00 0.00 20 1040.2
20190217191204 42 293 6.0 15.0 0.00 0.00 0.00 20 1040.2
20190217190704 41 341 7.0 16.0 0.00 0.00 0.00 23 1040.3
20190217190204 41 337 6.0 16.0 0.00 0.00 0.00 21 1040.5
20190217185704 40 300 7.0 16.0 0.00 0.00 0.00 23 1040.7
20190217185204 40 315 7.0 14.0 0.00 0.00 0.00 23 1040.8
20190217184704 40 341 6.0 13.0 0.00 0.00 0.00 22 1040.9
20190217184204 40 275 5.0 13.0 0.00 0.00 0.00 24 1041.1
20190217183705 40 275 5.0 12.0 0.00 0.00 0.00 23 1041.2
20190217183205 41 331 6.0 12.0 0.00 0.00 0.00 22 1041.2
20190217182705 41 329 5.0 12.0 0.00 0.00 0.00 21 1041.2
20190217182204 41 305 5.0 12.0 0.00 0.00 0.00 21 1041.2
20190217181704 41 227 6.0 12.0 0.00 0.00 0.00 22 1041.2
20190217181204 41 329 6.0 14.0 0.00 0.00 0.00 22 1041.2
20190217180704 40 18 5.0 14.0 0.00 0.00 0.00 23 1041.2
20190217180204 40 275 5.0 14.0 0.00 0.00 0.00 24 1041.2
20190217175704 40 270 5.0 14.0 0.00 0.00 0.00 23 1041.1
20190217175205 40 284 5.0 14.0 0.00 0.00 0.00 24 1041.1
20190217174704 40 216 4.0 10.0 0.00 0.00 0.00 25 1041.0
20190217174204 40 270 4.0 10.0 0.00 0.00 0.00 25 1041.0
20190217173704 39 183 5.0 12.0 0.00 0.00 0.00 25 1041.0
20190217173204 39 342 5.0 12.0 0.00 0.00 0.00 26 1041.0
20190217172704 39 290 5.0 12.0 0.00 0.00 0.00 27 1041.0
20190217172204 39 319 5.0 14.0 0.00 0.00 0.00 27 1041.1
20190217171704 38 246 6.0 14.0 0.00 0.00 0.00 27 1041.1
20190217171205 38 34 5.0 14.0 0.00 0.00 0.00 27 1041.0
20190217170704 37 290 5.0 13.0 0.00 0.00 0.00 29 1041.1
20190217170204 37 298 6.0 13.0 0.00 0.00 0.00 28 1041.2
20190217165704 37 260 6.0 13.0 0.00 0.00 0.00 28 1041.3
20190217165204 37 218 5.0 11.0 0.00 0.00 0.00 28 1041.3
20190217164704 37 335 4.0 11.0 0.00 0.00 0.00 29 1041.3
20190217164205 36 291 3.0 12.0 0.00 0.00 0.00 30 1041.3
20190217163704 36 57 5.0 12.0 0.00 0.00 0.00 35 1041.3